Location: Chèvreville
(49.1099°N, 2.8495°E)
Time: 14:41:02
(UTC+00:00)

BlueWalker 3 - Pass Details

Date: 28 January 2026
Orbit: 451 x 461 km, 53.2° (Epoch: 16 February)

Event Time Altitude Azimuth Distance (km) Brightness Sun altitude
Rises 19:39:43 0° 287° (WNW) 2,459 6.6 -29.5°
Reaches altitude 10° 19:41:55 10° 294° (WNW) 1,586 5.3 -29.9°
Enters shadow 19:42:51 17° 300° (WNW) 1,236 4.6 -30.0°
